FW6834 Weather Reports


Display with metric or nautical units.
time (UTC)temp
F
wind
direction
speed
MPH
gust
MPH
rain 1hr
in
rain 24hr
in
rain mn
in
humidity
%
barometer
mb
20260504002102 81 123 6.0 14.0 0.00 0.00 0.00 25 1051.5
20260504000602 83 182 8.0 13.0 0.00 0.00 0.00 24 1051.8
20260503235102 83 13 10.0 16.0 0.00 0.00 0.00 24 1051.8
20260503233602 83 184 13.0 13.0 0.00 0.00 0.00 22 1051.8
20260503232602 83 173 8.0 16.0 0.00 0.00 0.00 23 1051.8
20260503231102 84 277 11.0 15.0 0.00 0.00 0.00 23 1051.8
20260503225602 84 273 11.0 16.0 0.00 0.00 0.00 22 1051.8
20260503224103 86 208 6.0 11.0 0.00 0.00 0.00 22 1052.2
20260503222603 85 257 9.0 14.0 0.00 0.00 0.00 22 1052.2
20260503221102 85 189 8.0 16.0 0.00 0.00 0.00 22 1052.5
20260503215602 85 233 11.0 18.0 0.00 0.00 0.00 22 1052.5
20260503214102 86 142 9.0 14.0 0.00 0.00 0.00 23 1052.8
20260503212602 86 301 6.0 15.0 0.00 0.00 0.00 22 1052.8
20260503211102 86 224 7.0 14.0 0.00 0.00 0.00 20 1053.2
20260503205602 86 201 8.0 16.0 0.00 0.00 0.00 21 1053.5
20260503202602 86 209 11.0 13.0 0.00 0.00 0.00 21 1053.8
20260503201102 87 277 7.0 13.0 0.00 0.00 0.00 22 1054.2
20260503195602 86 176 10.0 15.0 0.00 0.00 0.00 22 1054.5
20260503194102 86 184 7.0 13.0 0.00 0.00 0.00 21 1054.9
20260503191602 87 249 8.0 14.0 0.00 0.00 0.00 20 1055.2
20260503183102 86 227 9.0 15.0 0.00 0.00 0.00 25 1055.5
20260503181602 86 273 5.0 13.0 0.00 0.00 0.00 26 1055.9
20260503174603 85 242 9.0 9.0 0.00 0.00 0.00 28 1056.2
20260503171603 84 167 8.0 10.0 0.00 0.00 0.00 29 1056.9
20260503081602 57 199 4.0 8.0 0.00 0.00 0.00 60 1058.6
20260503071603 57 129 3.0 6.0 0.00 0.00 0.00 59 1059.3
20260503070103 57 172 4.0 6.0 0.00 0.00 0.00 59 1059.3
20260503054602 59 134 3.0 5.0 0.00 0.00 0.00 54 1059.6
20260503051603 59 125 3.0 4.0 0.00 0.00 0.00 53 1059.6
20260503041602 61 133 4.0 7.0 0.00 0.00 0.00 51 1059.3
20260503034602 62 105 3.0 5.0 0.00 0.00 0.00 51 1059.3
20260503033102 62 68 4.0 4.0 0.00 0.00 0.00 50 1059.3
20260503032102 62 110 3.0 4.0 0.00 0.00 0.00 50 1059.3
20260503030603 63 126 3.0 4.0 0.00 0.00 0.00 48 1058.9
20260503025102 64 140 2.0 6.0 0.00 0.00 0.00 47 1059.3
20260503023602 64 86 6.0 6.0 0.00 0.00 0.00 45 1059.3
20260503022102 65 101 4.0 6.0 0.00 0.00 0.00 44 1058.9
20260503020602 66 93 5.0 7.0 0.00 0.00 0.00 43 1058.6
20260503013602 68 92 2.0 3.0 0.00 0.00 0.00 39 1058.2
20260503012102 69 49 2.0 4.0 0.00 0.00 0.00 38 1058.2
20260503010603 70 87 2.0 4.0 0.00 0.00 0.00 36 1058.2